Regional Weather Roundup
Issued by NWS Wakefield, VA

Home | Current Version | Previous Version | Text Only | Print | Product List | Glossary Off
Versions: 1 2 3 4 5 6 7 8 9 10 11 12 13 14 15 16 17 18 19 20 21 22 23 24 25 26 27

000
ASUS41 KAKQ 100415
RWRAKQ

REGIONAL WEATHER ROUNDUP
NATIONAL WEATHER SERVICE WAKEFIELD VA
1100 PM EST SAT DEC 09 2017

Note: "fair" indicates few or no clouds below 12,000 feet with no
significant weather and/or obstructions to visibility. * = Denotes
station may not report precipitation (e.g., rain,snow,etc.),
thunder or fog.

VAZ042-051-052>054-056-100500-
NORTHERN VIRGINIA

CITY           SKY/WX    TMP DP  RH WIND       PRES   REMARKS
WASH NATIONAL  CLOUDY    32  29  88 SW8       29.87R
DULLES         MOCLDY    26  26 100 S3        29.85R FOG
FORT BELVOIR   MOCLDY    31  28  88 CALM      29.87R
QUANTICO       PTCLDY    31  30  96 W3        29.89R
FREDERICKSBRG* CLOUDY    31  31 100 CALM      29.87S
STAFFORD*      CLOUDY    29  29 100 CALM      29.91R
WARRENTON      CLOUDY    30  28  90 CALM      29.86R FOG
CULPEPER*      CLOUDY    30  29  94 CALM      29.88R FOG
MANASSAS*      CLOUDY    28  27  96 SW6       29.88R FOG
LEESBURG*      PTCLDY    28  28 100 SW3       29.86R FOG
WINCHESTER     MOCLDY    28  28 100 W7        29.83R FOG
FRONT ROYAL*   CLOUDY    32  30  93 MISG      29.83R
LURAY*         CLOUDY    32  32 100 CALM      29.84R FOG
$$

VAZ048-049-060>072-079>083-100500-
CENTRAL AND SOUTH CENTRAL VIRGINIA

CITY           SKY/WX    TMP DP  RH WIND       PRES   REMARKS
RICHMOND       CLOUDY    33  32  96 SW6       29.89R FOG
CHESTERFIELD*  NOT AVBL
PETERSBURG*    CLOUDY    32  30  93 W6        29.91S
HANOVER        CLOUDY    33  32  96 SW5       29.90R FOG
TAPPAHANNOCK*    N/A    N/A N/A N/A MISG        N/A
QUINTON*       CLOUDY    32  32 100 CALM      29.89R FOG
CHARLOTTSVILLE CLOUDY    33  32  96 CALM      29.85R FOG
GORDONSVILLE*  CLOUDY    32  32  99 SW5       29.86R
ORANGE*        CLOUDY    32  32 100 CALM      29.86R FOG
LOUISA*        MOCLDY    31  30  98 CALM      29.90S
BUMPASS*       CLOUDY    31  30  96 SW5       29.87R
FARMVILLE*     CLOUDY    33  33 100 CALM      29.87R
CREWE*         CLOUDY    32  32 100 CALM      29.88S
FORT PICKETT*  NOT AVBL
CHASE CITY*    CLOUDY    32  32 100 CALM      29.89S
CLARKSVILLE*   CLOUDY    32  32 100 S5        29.89S
SOUTH HILL*    CLOUDY    32  32 100 SW7       29.95F
LAWRENCEVILLE* CLOUDY    32  32  99 W5        29.90S
EMPORIA*       CLOUDY    32  32 100 CALM      29.93S
$$

VAZ088>098-100500-
SOUTHEAST VIRGINIA

CITY           SKY/WX    TMP DP  RH WIND       PRES   REMARKS
NORFOLK        CLOUDY    34  34 100 VRB7      29.88R
VIRGINIA BEACH CLOUDY    35  32  88 W6        29.87R
NORFOLK NAVAL  CLOUDY    37  33  85 W12       29.90R
WEST POINT*    CLOUDY   N/A N/A N/A W7        29.91R
SALUDA*        CLOUDY    32  32 100 W5        29.88R
NEWPORT NEWS   CLOUDY    34  32  92 NW6       29.89R
LANGLEY AFB    CLOUDY    34  34 100 NW8       29.89R
FORT EUSTIS    CLOUDY    35  32  90 W7        29.87R
WILLIAMSBURG*  MOCLDY    34  34 100 W6        29.90R
HR EXEC AP*    CLOUDY    34  34 100 W3        29.91R
FRANKLIN*      CLOUDY    33  32  97 W7        29.93R
US460-WAKEFLD  CLOUDY    33  32  96 SW5       29.91R
$$

VAZ020-022-025-037-045-100500-
WEST CENTRAL AND SOUTHWEST VIRGINIA

CITY           SKY/WX    TMP DP  RH WIND       PRES   REMARKS
STAUNTON*      CLOUDY    27  26  96 CALM      29.84S
WAYNESBORO*    CLOUDY    30  28  90 SW6       29.81R
HOT SPRINGS VA CLOUDY    23  15  70 W21G31    29.71S WCI   8
LYNCHBURG      CLOUDY    30  30 100 SW3       29.86R
DANVILLE       CLOUDY    31  31 100 W6        29.91R
SOUTH BOSTON*  CLOUDY    33  32  97 SW5       29.90R
MARTINSVILLE     N/A    N/A N/A N/A MISG        N/A
ROANOKE        PTCLDY    34  19  54 W16G24    29.89R WCI  24
BLACKSBURG     LGT SNOW  30  21  70 W14G21    29.90R WCI  19
DUBLIN*        CLOUDY    30  21  68 W20G26    29.90R WCI  17
MARION*        CLOUDY    26  19  73 W10G17    29.92R WCI  17
HILLSVILLE*    LGT SNOW  25  20  82 NW15G25   29.84R WCI  12
RICHLANDS*     LGT SNOW  24  20  83 W8        29.92R
WISE*          LGT SNOW  27  23  86 W13       29.95S WCI  16
ABINGDON*      CLOUDY    29  22  73 W10G16    29.98R WCI  20
$$

MDZ021>025-VAZ099-100-100500-
SOUTHERN MARYLAND AND THE DELMARVA PENINSULA

CITY           SKY/WX    TMP DP  RH WIND       PRES   REMARKS
PATUXENT RIVER CLOUDY    31  30  96 W9        29.86R
BAY BRIDGE APT CLOUDY    32  28  86 MISG      29.85R FOG
LEONARDTOWN    CLOUDY    32  30  93 NW5       29.88R
DOVER          FLURRIES  31  29  92 W7        29.81R
GEORGETOWN     CLOUDY    31  29  92 W8        29.82R FOG
EASTON         CLOUDY    33  32  94 NW5       29.87R
CAMBRIDGE      CLOUDY    34  30  86 NW6       29.84R
SALISBURY      CLOUDY    31  30  96 W7        29.83R
OCEAN CITY     LGT SNOW  31  30  96 NW8       29.81F FOG
WALLOPS ISLAND CLOUDY    31  31 100 NW8       29.84R
ACCOMACK*      MIX PCPN  36  34  94 NW13      29.85R
$$

NCZ012>017-030>032-100500-
NORTH CENTRAL AND EASTERN NORTH CAROLINA

CITY           SKY/WX    TMP DP  RH WIND       PRES   REMARKS
ROANOKE RAPIDS CLOUDY    34  32  93 CALM      29.93S
RALEIGH        CLOUDY    32  32 100 SW6       29.93R FOG
ELIZABETH CITY CLOUDY    35  34  96 W13       29.91S
AHOSKIE*       CLOUDY    32  32 100 W3        29.94R
EDENTON*       CLOUDY    37  35  91 NW5       29.93R
CURRITUCK*     CLOUDY    33  33  97 W8        29.90R
KILL DEVIL HLS CLOUDY    37  37 100 W9G18     29.86R
MANTEO         CLOUDY    38  36  93 NW10G21   29.89R
CAPE HATTERAS  CLOUDY    40  39  97 W9        29.89R
TARBORO*       NOT AVBL
GOLDSBORO      CLOUDY    36  34  91 W8        29.94R
WASHINGTON     CLOUDY    36  34  93 W6        29.95R
GREENVILLE     CLOUDY    36  34  93 W6        29.97R
NEW BERN       CLOUDY    36  36 100 W13       29.97R
WILMINGTON     CLOUDY    41  36  82 W9        29.98R
$$

VAZ048-100500-
ELSEWHERE

CITY           SKY/WX    TMP DP  RH WIND       PRES   REMARKS
HARRISBURG PA  MOCLDY    27  23  85 NW7       29.80R
BALTIMORE      MOCLDY    29  27  92 W8        29.84R
ANNAPOLIS      CLOUDY    31  31 100 W3        29.85R
ANDREWS AFB    PTCLDY    30  28  91 SW6       29.84R
PHILADELPHIA   LGT SNOW  31  28  89 W6        29.79S FOG
HENDERSON NC   CLEAR     30  29  96 CALM      29.90S FOG
GREENSBORO     PTCLDY    31  28  89 W10       29.91R WCI  22
ROCKY MOUNT    CLOUDY    35  34  96 W8        29.94S
$$

VAZ100-100500-
MARINE

STATION/POSITION TIME  TEMP    WIND        PRES    WAVE   SWELL
                       AIR SEA DIR/SP/G            HT/PER HT/PER
                 (UTC) (F)     (DEG/KT/KT) (MB)    (FT/S) (FT/S)
BRANDYWINE LGT   0342   33     330/ 12/ 17 1008.9R
CAPE MAY NJ      0348   33 46  350/  8/ 15 1008.2R
LEWES DE         0342   32 46  310/ 16/ 20 1008.7R
15NM E FENWICK I 0350   38 55  300/ 19/ 23 1008.3R   7/ 8   5/ 8
OCEAN-CITY-INLET 0342   32 47  330/  8/  9 1009.4R
WACHAPREAGUE VA  0342   34 43  280/  1/  2 1010.5R
THOMAS POINT MD  0400   32 48  270/ 11/ 13   N/A
GOOSES REEF MD   0400   33 49  290/ 10/ 14 1011.5    1/ 2
COVE POINT MD    0342   31     310/  7/ 12 1011.7R
SOLOMONS ISLAND  0342   32 49  270/  8/ 13 1010.9R
BISHOPS HEAD MD  0342   33 39  330/  9/ 10 1011.1R
PINEY POINT MD   0348          290/  9/ 13   N/A
POTOMAC MD       0400   36 48  290/ 14/ 17 1010.5    2/ 2
CAMBRIDGE MD     0342   32 45              1011.1R
LEWISETTA VA     0342   33 45  290/  7/  9 1011.5R
RAPPAHANNOCK LGT 0342          290/ 21/ 24 1011.6R
STINGRAY PT      0350   36     340/ 16/ 19 1010.8R
YORK RVR RNG VA  0342   35     310/ 13/ 16 1012.4R
YORKTOWN VA      0342   35 51  280/  7/  9 1011.8R
JAMESTOWN VA     0400      51  270/ 12/ 16   N/A     0
DOMINION TERM VA 0342   35     290/ 12/ 14 1012.2R
KIPTOPEKE VA     0342      49  310/ 18/ 22   N/A
CAPE HENRY VA    0342   36     280/ 13/ 18   N/A
WILLOUBY STN VA  0342   36     310/ 12/ 16 1012.0R
S CRANEY ISL VA  0342   35     270/  9/ 11 1011.9R
CAPE HENRY BUOY  0400      57                N/A     6/ 8   2/11
1ST LANDING BUOY 0400   36 51  320/ 16/ 21 1011.6    3/ 4
CAPE CHARLES BUO 0351      55                N/A     5/ 8   2/11
64NM E OF VA BCH 0350   45 62  290/ 19/ 23 1009.7R   9/ 8   5/10
DUCK PIER NC     0342   36 54  290/ 15/ 18 1011.3R
44100 DUCK FRF   0345      57                N/A     7/ 8   2/11
44056 DUCK FRF   0400      55                N/A     6/ 8   2/11
OREGON INLET NC  0342   39 53  280/  9/ 14 1011.4R
HATTERAS NC      0342   41 55  290/ 16/ 19 1011.7R
DIAMOND SHLS NC  0350   47 77  290/ 17/ 25 1011.8R   7/ 9   5/ 9
CAPE LOOKOUT NC  0400          280/ 18/ 22 1014.0R
$$




USA.gov is the U.S. government's official web portal to all federal, state and local government web resources and services.